Time,TemperatureF,DewpointF,PressureIn,WindDirection,WindDirectionDegrees,WindSpeedMPH,WindSpeedGustMPH,Humidity,HourlyPrecipIn,Conditions,Clouds,dailyrainin,SoftwareType,DateUTC
2013-01-15 00:01:00,-4.2,-19.7,29.35,WSW,251,0.0,0.0,46,0.00,,CLR,0.00,VWS V14.01,2013-01-15 06:01:00,
2013-01-15 00:06:00,-4.4,-19.9,29.35,WSW,251,0.0,0.0,46,0.00,,CLR,0.00,VWS V14.01,2013-01-15 06:06:00,
2013-01-15 00:11:00,-4.6,-20.1,29.35,WSW,251,0.0,0.0,46,0.00,,CLR,0.00,VWS V14.01,2013-01-15 06:11:00,
2013-01-15 00:16:00,-4.6,-20.1,29.35,WSW,251,0.0,0.0,46,0.00,,CLR,0.00,VWS V14.01,2013-01-15 06:16:00,
2013-01-15 00:21:00,-4.6,-20.1,29.35,WSW,251,0.0,0.0,46,0.00,,CLR,0.00,VWS V14.01,2013-01-15 06:21:00,
2013-01-15 00:26:00,-4.7,-20.2,29.35,WSW,251,0.0,0.0,46,0.00,,CLR,0.00,VWS V14.01,2013-01-15 06:26:00,
2013-01-15 00:31:00,-4.7,-20.2,29.35,WSW,251,0.0,0.0,46,0.00,,CLR,0.00,VWS V14.01,2013-01-15 06:31:00,
2013-01-15 00:36:00,-4.7,-20.2,29.35,WSW,251,0.0,0.0,46,0.00,,CLR,0.00,VWS V14.01,2013-01-15 06:36:00,
2013-01-15 00:41:00,-4.7,-20.2,29.35,WSW,251,0.0,0.0,46,0.00,,CLR,0.00,VWS V14.01,2013-01-15 06:41:00,
2013-01-15 00:46:00,-4.9,-20.4,29.35,WSW,251,0.0,0.0,46,0.00,,CLR,0.00,VWS V14.01,2013-01-15 06:46:00,
2013-01-15 00:51:00,-4.9,-20.4,29.35,WSW,251,0.0,0.0,46,0.00,,CLR,0.00,VWS V14.01,2013-01-15 06:51:00,
2013-01-15 00:56:00,-5.1,-20.6,29.35,WSW,251,0.0,0.0,46,0.00,,CLR,0.00,VWS V14.01,2013-01-15 06:56:00,
2013-01-15 01:01:00,-4.9,-20.4,29.35,WSW,251,0.0,0.0,46,0.00,,CLR,0.00,VWS V14.01,2013-01-15 07:01:00,
2013-01-15 01:06:00,-4.7,-20.2,29.32,WSW,251,0.0,0.0,46,0.00,,CLR,0.00,VWS V14.01,2013-01-15 07:06:00,
2013-01-15 01:11:00,-4.7,-20.2,29.32,WSW,251,0.0,0.0,46,0.00,,CLR,0.00,VWS V14.01,2013-01-15 07:11:00,
2013-01-15 01:16:00,-4.7,-20.2,29.32,WSW,251,0.0,0.0,46,0.00,,CLR,0.00,VWS V14.01,2013-01-15 07:16:00,
2013-01-15 01:21:00,-4.6,-20.1,29.32,WSW,251,0.0,0.0,46,0.00,,CLR,0.00,VWS V14.01,2013-01-15 07:21:00,
2013-01-15 01:26:00,-4.6,-20.1,29.32,WSW,251,0.0,0.0,46,0.00,,CLR,0.00,VWS V14.01,2013-01-15 07:26:00,
2013-01-15 01:31:00,-4.6,-20.1,29.32,WSW,251,0.0,0.0,46,0.00,,CLR,0.00,VWS V14.01,2013-01-15 07:31:00,
2013-01-15 01:36:00,-4.6,-20.1,29.32,WSW,251,0.0,0.0,46,0.00,,CLR,0.00,VWS V14.01,2013-01-15 07:36:00,
2013-01-15 01:41:00,-4.4,-19.9,29.32,WSW,251,0.0,0.0,46,0.00,,CLR,0.00,VWS V14.01,2013-01-15 07:41:00,
2013-01-15 01:46:00,-4.2,-19.7,29.32,WSW,251,0.0,0.0,46,0.00,,CLR,0.00,VWS V14.01,2013-01-15 07:46:00,
2013-01-15 01:52:00,-4.0,-19.6,29.32,WSW,251,0.0,0.0,46,0.00,,CLR,0.00,VWS V14.01,2013-01-15 07:52:00,
2013-01-15 01:57:00,-3.7,-19.2,29.32,WSW,251,0.0,0.0,46,0.00,,CLR,0.00,VWS V14.01,2013-01-15 07:57:00,
2013-01-15 02:02:00,-3.1,-18.7,29.32,WSW,251,0.0,0.0,46,0.00,,CLR,0.00,VWS V14.01,2013-01-15 08:02:00,
2013-01-15 02:07:00,-2.6,-18.2,29.32,WSW,251,0.0,0.0,46,0.00,,CLR,0.00,VWS V14.01,2013-01-15 08:07:00,
2013-01-15 02:12:00,-2.0,-17.7,29.32,WSW,251,0.0,0.0,46,0.00,,CLR,0.00,VWS V14.01,2013-01-15 08:12:00,
2013-01-15 02:17:00,-1.5,-17.2,29.32,WSW,251,0.0,0.0,46,0.00,,CLR,0.00,VWS V14.01,2013-01-15 08:17:00,
2013-01-15 02:22:00,-1.1,-16.9,29.32,WSW,251,0.0,0.0,46,0.00,,CLR,0.00,VWS V14.01,2013-01-15 08:22:00,
2013-01-15 02:27:00,-0.8,-16.6,29.32,WSW,251,0.0,0.0,46,0.00,,CLR,0.00,VWS V14.01,2013-01-15 08:27:00,
2013-01-15 02:32:00,-0.8,-16.6,29.32,WSW,251,0.0,0.0,46,0.00,,CLR,0.00,VWS V14.01,2013-01-15 08:32:00,
2013-01-15 02:37:00,-0.6,-16.4,29.32,WSW,251,0.0,0.0,46,0.00,,CLR,0.00,VWS V14.01,2013-01-15 08:37:00,
2013-01-15 02:42:00,-0.4,-16.2,29.32,WSW,251,0.0,0.0,46,0.00,,CLR,0.00,VWS V14.01,2013-01-15 08:42:00,
2013-01-15 02:47:00,-0.4,-16.2,29.32,WSW,251,0.0,0.0,46,0.00,,CLR,0.00,VWS V14.01,2013-01-15 08:47:00,
2013-01-15 02:52:00,-0.8,-16.6,29.32,WSW,251,0.0,0.0,46,0.00,,CLR,0.00,VWS V14.01,2013-01-15 08:52:00,
2013-01-15 02:57:00,-1.1,-16.9,29.32,WSW,251,0.0,0.0,46,0.00,,CLR,0.00,VWS V14.01,2013-01-15 08:57:00,
2013-01-15 03:02:00,-1.3,-17.1,29.32,WSW,251,0.0,0.0,46,0.00,,CLR,0.00,VWS V14.01,2013-01-15 09:02:00,
2013-01-15 03:07:00,-1.3,-17.1,29.32,WSW,251,0.0,0.0,46,0.00,,CLR,0.00,VWS V14.01,2013-01-15 09:07:00,
2013-01-15 03:12:00,-1.1,-16.9,29.32,WSW,251,0.0,0.0,46,0.00,,CLR,0.00,VWS V14.01,2013-01-15 09:12:00,
2013-01-15 03:17:00,-0.8,-16.6,29.32,WSW,251,0.0,0.0,46,0.00,,CLR,0.00,VWS V14.01,2013-01-15 09:17:00,
2013-01-15 03:22:00,-0.4,-16.2,29.32,WSW,251,0.0,0.0,46,0.00,,CLR,0.00,VWS V14.01,2013-01-15 09:22:00,
2013-01-15 03:27:00,-0.4,-16.2,29.32,WSW,251,0.0,0.0,46,0.00,,CLR,0.00,VWS V14.01,2013-01-15 09:27:00,
2013-01-15 03:32:00,-0.4,-16.2,29.29,WSW,251,0.0,0.0,46,0.00,,CLR,0.00,VWS V14.01,2013-01-15 09:32:00,
2013-01-15 03:37:00,-0.2,-16.1,29.29,WSW,251,0.0,0.0,46,0.00,,CLR,0.00,VWS V14.01,2013-01-15 09:37:00,
2013-01-15 03:42:00,-0.1,-15.9,29.29,WSW,251,0.0,0.0,46,0.00,,CLR,0.00,VWS V14.01,2013-01-15 09:42:00,
2013-01-15 03:47:00,0.3,-15.6,29.29,WSW,251,0.0,0.0,46,0.00,,CLR,0.00,VWS V14.01,2013-01-15 09:47:00,
2013-01-15 03:52:00,0.5,-15.4,29.29,WSW,251,0.0,0.0,46,0.00,,CLR,0.00,VWS V14.01,2013-01-15 09:52:00,
2013-01-15 03:57:00,0.7,-15.2,29.29,WSW,248,0.0,0.0,46,0.00,,CLR,0.00,VWS V14.01,2013-01-15 09:57:00,
2013-01-15 04:02:00,0.8,-15.1,29.29,WSW,248,0.0,0.0,46,0.00,,CLR,0.00,VWS V14.01,2013-01-15 10:02:00,
2013-01-15 04:07:00,1.0,-14.9,29.29,WSW,248,0.0,0.0,46,0.00,,CLR,0.00,VWS V14.01,2013-01-15 10:07:00,
2013-01-15 04:12:00,1.0,-14.9,29.29,WSW,247,0.0,0.0,46,0.00,,CLR,0.00,VWS V14.01,2013-01-15 10:12:00,
2013-01-15 04:17:00,1.4,-14.6,29.29,WSW,247,0.0,0.0,46,0.00,,CLR,0.00,VWS V14.01,2013-01-15 10:17:00,
2013-01-15 04:22:00,1.6,-14.4,29.26,WSW,247,0.0,0.0,46,0.00,,CLR,0.00,VWS V14.01,2013-01-15 10:22:00,
2013-01-15 04:27:00,1.7,-14.2,29.26,WSW,247,0.0,0.0,46,0.00,,CLR,0.00,VWS V14.01,2013-01-15 10:27:00,
2013-01-15 04:32:00,1.6,-14.4,29.29,WSW,247,0.0,0.0,46,0.00,,CLR,0.00,VWS V14.01,2013-01-15 10:32:00,
2013-01-15 04:37:00,1.4,-14.6,29.29,WSW,247,0.0,0.0,46,0.00,,CLR,0.00,VWS V14.01,2013-01-15 10:37:00,
2013-01-15 04:42:00,1.4,-14.6,29.29,WSW,247,0.0,0.0,46,0.00,,CLR,0.00,VWS V14.01,2013-01-15 10:42:00,
2013-01-15 04:47:00,1.2,-14.8,29.29,WSW,247,0.0,0.0,46,0.00,,CLR,0.00,VWS V14.01,2013-01-15 10:47:00,
2013-01-15 04:52:00,1.2,-14.8,29.29,WSW,247,0.0,0.0,46,0.00,,CLR,0.00,VWS V14.01,2013-01-15 10:52:00,
2013-01-15 04:57:00,1.4,-14.6,29.29,WSW,247,0.0,0.0,46,0.00,,CLR,0.00,VWS V14.01,2013-01-15 10:57:00,
2013-01-15 05:02:00,1.7,-14.2,29.26,WSW,247,0.0,0.0,46,0.00,,CLR,0.00,VWS V14.01,2013-01-15 11:02:00,
2013-01-15 05:07:00,1.7,-14.2,29.26,WSW,247,0.0,0.0,46,0.00,,CLR,0.00,VWS V14.01,2013-01-15 11:07:00,
2013-01-15 05:12:00,1.9,-14.1,29.26,WSW,247,0.0,0.0,46,0.00,,CLR,0.00,VWS V14.01,2013-01-15 11:12:00,
2013-01-15 05:17:00,2.3,-13.8,29.26,SSE,164,0.0,3.6,46,0.00,,CLR,0.00,VWS V14.01,2013-01-15 11:17:00,
2013-01-15 05:23:00,2.3,-13.8,29.26,South,190,0.0,0.0,46,0.00,,CLR,0.00,VWS V14.01,2013-01-15 11:23:00,
2013-01-15 05:28:00,2.3,-13.8,29.26,South,190,0.0,0.0,46,0.00,,CLR,0.00,VWS V14.01,2013-01-15 11:28:00,
2013-01-15 05:33:00,2.3,-13.8,29.26,South,189,0.0,0.0,46,0.00,,CLR,0.00,VWS V14.01,2013-01-15 11:33:00,
2013-01-15 05:38:00,2.1,-13.9,29.26,South,189,0.0,0.0,46,0.00,,CLR,0.00,VWS V14.01,2013-01-15 11:38:00,
2013-01-15 05:43:00,2.1,-13.9,29.26,South,190,0.0,0.0,46,0.00,,CLR,0.00,VWS V14.01,2013-01-15 11:43:00,
2013-01-15 05:48:00,1.9,-14.1,29.26,South,190,0.0,0.0,46,0.00,,CLR,0.00,VWS V14.01,2013-01-15 11:48:00,
2013-01-15 05:53:00,1.7,-14.2,29.26,South,190,0.0,0.0,46,0.00,,CLR,0.00,VWS V14.01,2013-01-15 11:53:00,
2013-01-15 05:58:00,1.6,-14.4,29.26,South,190,0.0,0.0,46,0.00,,CLR,0.00,VWS V14.01,2013-01-15 11:58:00,
2013-01-15 06:03:00,1.2,-14.8,29.26,South,189,0.0,0.0,46,0.00,,CLR,0.00,VWS V14.01,2013-01-15 12:03:00,
2013-01-15 06:08:00,0.8,-15.1,29.26,East,99,0.0,0.0,46,0.00,,CLR,0.00,VWS V14.01,2013-01-15 12:08:00,
2013-01-15 06:13:00,0.8,-15.1,29.26,East,99,0.0,0.0,46,0.00,,CLR,0.00,VWS V14.01,2013-01-15 12:13:00,
2013-01-15 06:18:00,0.8,-15.1,29.26,East,99,0.0,0.0,46,0.00,,CLR,0.00,VWS V14.01,2013-01-15 12:18:00,
2013-01-15 06:23:00,1.4,-14.6,29.26,ESE,112,0.0,0.0,46,0.00,,CLR,0.00,VWS V14.01,2013-01-15 12:23:00,
2013-01-15 06:28:00,1.9,-14.1,29.26,ESE,112,0.0,0.0,46,0.00,,CLR,0.00,VWS V14.01,2013-01-15 12:28:00,
2013-01-15 06:33:00,2.5,-13.6,29.26,SW,217,0.0,0.0,46,0.00,,CLR,0.00,VWS V14.01,2013-01-15 12:33:00,
2013-01-15 06:38:00,2.6,-13.4,29.26,SW,217,0.0,0.0,46,0.00,,CLR,0.00,VWS V14.01,2013-01-15 12:38:00,
2013-01-15 06:43:00,2.6,-13.4,29.26,SW,217,0.0,0.0,46,0.00,,CLR,0.00,VWS V14.01,2013-01-15 12:43:00,
2013-01-15 06:48:00,3.4,-12.8,29.26,South,176,0.0,0.0,46,0.00,,CLR,0.00,VWS V14.01,2013-01-15 12:48:00,
2013-01-15 06:53:00,3.2,-12.9,29.26,South,176,0.0,0.0,46,0.00,,CLR,0.00,VWS V14.01,2013-01-15 12:53:00,
2013-01-15 06:58:00,2.8,-13.3,29.26,South,176,0.0,0.0,46,0.00,,CLR,0.00,VWS V14.01,2013-01-15 12:58:00,
2013-01-15 07:03:00,2.5,-13.6,29.26,South,177,0.0,0.0,46,0.00,,FEW055,0.00,VWS V14.01,2013-01-15 13:03:00,
2013-01-15 07:08:00,2.3,-13.8,29.26,SW,231,0.0,0.0,46,0.00,,FEW055,0.00,VWS V14.01,2013-01-15 13:08:00,
2013-01-15 07:13:00,2.3,-13.8,29.26,SW,231,0.0,0.0,46,0.00,,FEW055,0.00,VWS V14.01,2013-01-15 13:13:00,
2013-01-15 07:18:00,2.1,-13.9,29.26,SW,231,0.0,0.0,46,0.00,,FEW055,0.00,VWS V14.01,2013-01-15 13:18:00,
2013-01-15 07:23:00,2.1,-13.9,29.26,SW,231,0.0,0.0,46,0.00,,FEW055,0.00,VWS V14.01,2013-01-15 13:23:00,
2013-01-15 07:28:00,2.1,-13.9,29.26,SW,231,0.0,0.0,46,0.00,,FEW055,0.00,VWS V14.01,2013-01-15 13:28:00,
2013-01-15 07:33:00,1.9,-14.1,29.26,SW,231,0.0,0.0,46,0.00,,FEW055,0.00,VWS V14.01,2013-01-15 13:33:00,
2013-01-15 07:38:00,1.9,-14.1,29.26,SW,231,0.0,0.0,46,0.00,,FEW055,0.00,VWS V14.01,2013-01-15 13:38:00,
2013-01-15 07:43:00,1.9,-14.1,29.26,SW,231,0.0,0.0,46,0.00,,FEW055,0.00,VWS V14.01,2013-01-15 13:43:00,
2013-01-15 07:48:00,1.9,-14.1,29.26,SW,231,0.0,0.0,46,0.00,,FEW055,0.00,VWS V14.01,2013-01-15 13:48:00,
2013-01-15 07:53:00,1.9,-14.1,29.26,SW,231,0.0,0.0,46,0.00,,FEW055,0.00,VWS V14.01,2013-01-15 13:53:00,
2013-01-15 07:58:00,1.9,-14.1,29.26,SW,231,0.0,0.0,46,0.00,,FEW055,0.00,VWS V14.01,2013-01-15 13:58:00,
2013-01-15 08:03:00,2.1,-13.9,29.26,SW,231,0.0,0.0,46,0.00,,BKN050,0.00,VWS V14.01,2013-01-15 14:03:00,
2013-01-15 08:08:00,2.1,-13.9,29.26,SW,231,0.0,0.0,46,0.00,,BKN050,0.00,VWS V14.01,2013-01-15 14:08:00,
2013-01-15 08:13:00,2.1,-13.9,29.26,SW,231,0.0,0.0,46,0.00,,BKN050,0.00,VWS V14.01,2013-01-15 14:13:00,
2013-01-15 08:18:00,2.1,-13.9,29.26,SW,231,0.0,0.0,46,0.00,,BKN050,0.00,VWS V14.01,2013-01-15 14:18:00,
2013-01-15 08:23:00,2.1,-13.9,29.26,SW,231,0.0,0.0,46,0.00,,BKN050,0.00,VWS V14.01,2013-01-15 14:23:00,
2013-01-15 08:28:00,2.1,-13.9,29.26,SW,231,0.0,0.0,46,0.00,,BKN050,0.00,VWS V14.01,2013-01-15 14:28:00,
2013-01-15 08:33:00,2.5,-13.6,29.26,SW,231,0.0,0.0,46,0.00,,BKN050,0.00,VWS V14.01,2013-01-15 14:33:00,
2013-01-15 08:38:00,2.8,-13.3,29.26,SW,231,0.0,0.0,46,0.00,,BKN050,0.00,VWS V14.01,2013-01-15 14:38:00,
2013-01-15 08:43:00,3.2,-12.9,29.26,SW,231,0.0,0.0,46,0.00,,BKN050,0.00,VWS V14.01,2013-01-15 14:43:00,
2013-01-15 08:48:00,3.5,-12.6,29.26,SW,231,0.0,0.0,46,0.00,,BKN050,0.00,VWS V14.01,2013-01-15 14:48:00,
2013-01-15 08:53:00,3.9,-12.3,29.26,SW,231,0.0,0.0,46,0.00,,BKN050,0.00,VWS V14.01,2013-01-15 14:53:00,
2013-01-15 08:58:00,4.3,-11.9,29.26,SW,231,0.0,0.0,46,0.00,,BKN050,0.00,VWS V14.01,2013-01-15 14:58:00,
2013-01-15 09:03:00,4.8,-11.4,29.26,SW,231,0.0,0.0,46,0.00,,CLR,0.00,VWS V14.01,2013-01-15 15:03:00,
2013-01-15 09:08:00,5.5,-10.8,29.26,SW,231,0.0,0.0,46,0.00,,CLR,0.00,VWS V14.01,2013-01-15 15:08:00,
2013-01-15 09:13:00,6.1,-10.3,29.26,SW,231,0.0,0.0,46,0.00,,CLR,0.00,VWS V14.01,2013-01-15 15:13:00,
2013-01-15 09:18:00,7.0,-9.4,29.26,SW,231,0.0,0.0,46,0.00,,CLR,0.00,VWS V14.01,2013-01-15 15:18:00,
2013-01-15 09:23:00,7.9,-8.6,29.26,SW,231,0.0,0.0,46,0.00,,CLR,0.00,VWS V14.01,2013-01-15 15:23:00,
2013-01-15 09:29:00,8.8,-7.8,29.26,SW,231,0.0,0.0,46,0.00,,CLR,0.00,VWS V14.01,2013-01-15 15:29:00,
2013-01-15 09:34:00,9.8,-6.8,29.26,SW,219,3.6,3.6,46,0.00,,CLR,0.00,VWS V14.01,2013-01-15 15:34:00,
2013-01-15 09:39:00,10.7,-6.0,29.26,SW,221,0.0,0.0,46,0.00,,CLR,0.00,VWS V14.01,2013-01-15 15:39:00,
2013-01-15 09:44:00,11.5,-5.3,29.26,SW,221,0.0,0.0,46,0.00,,CLR,0.00,VWS V14.01,2013-01-15 15:44:00,
2013-01-15 09:49:00,12.2,3.7,29.26,SW,221,0.0,0.0,68,0.00,,CLR,0.00,VWS V14.01,2013-01-15 15:49:00,
2013-01-15 09:54:00,12.9,4.3,29.26,South,174,0.0,0.0,68,0.00,,CLR,0.00,VWS V14.01,2013-01-15 15:54:00,
2013-01-15 09:59:00,13.4,5.2,29.26,South,174,0.0,0.0,69,0.00,,CLR,0.00,VWS V14.01,2013-01-15 15:59:00,
2013-01-15 10:04:00,14.0,5.4,29.26,ENE,76,3.1,4.0,68,0.00,,CLR,0.00,VWS V14.01,2013-01-15 16:04:00,
2013-01-15 10:09:00,14.7,6.1,29.26,WSW,256,0.0,0.0,68,0.00,,CLR,0.00,VWS V14.01,2013-01-15 16:09:00,
2013-01-15 10:14:00,15.2,6.6,29.26,South,180,3.6,5.6,68,0.00,,CLR,0.00,VWS V14.01,2013-01-15 16:14:00,
2013-01-15 10:19:00,15.6,6.9,29.26,SSW,210,4.7,5.6,68,0.00,,CLR,0.00,VWS V14.01,2013-01-15 16:19:00,
2013-01-15 10:24:00,16.1,6.8,29.26,South,191,0.0,0.0,66,0.00,,CLR,0.00,VWS V14.01,2013-01-15 16:24:00,
2013-01-15 10:29:00,16.5,7.1,29.26,West,279,0.0,0.0,66,0.00,,CLR,0.00,VWS V14.01,2013-01-15 16:29:00,
2013-01-15 10:34:00,16.7,6.6,29.26,SSW,200,2.7,2.7,64,0.00,,CLR,0.00,VWS V14.01,2013-01-15 16:34:00,
2013-01-15 10:39:00,17.0,6.6,29.26,South,177,0.0,0.0,63,0.00,,CLR,0.00,VWS V14.01,2013-01-15 16:39:00,
2013-01-15 10:44:00,17.2,5.7,29.26,NNE,18,4.7,4.7,60,0.00,,CLR,0.00,VWS V14.01,2013-01-15 16:44:00,
2013-01-15 10:49:00,17.2,4.6,29.26,SW,225,0.0,2.7,57,0.00,,CLR,0.00,VWS V14.01,2013-01-15 16:49:00,
2013-01-15 10:54:00,17.6,4.2,29.26,WSW,258,0.0,4.5,55,0.00,,CLR,0.00,VWS V14.01,2013-01-15 16:54:00,
2013-01-15 10:59:00,17.8,4.3,29.26,South,175,0.0,3.1,55,0.00,,CLR,0.00,VWS V14.01,2013-01-15 16:59:00,
2013-01-15 11:04:00,17.9,4.1,29.23,South,175,0.0,0.0,54,0.00,,CLR,0.00,VWS V14.01,2013-01-15 17:04:00,
2013-01-15 11:09:00,18.1,3.9,29.23,West,259,5.1,5.1,53,0.00,,CLR,0.00,VWS V14.01,2013-01-15 17:09:00,
2013-01-15 11:14:00,18.3,3.6,29.23,South,191,5.1,5.1,52,0.00,,CLR,0.00,VWS V14.01,2013-01-15 17:14:00,
2013-01-15 11:19:00,18.3,2.8,29.23,SE,139,0.0,0.0,50,0.00,,CLR,0.00,VWS V14.01,2013-01-15 17:19:00,
2013-01-15 11:24:00,18.5,2.5,29.23,West,273,0.0,0.0,49,0.00,,CLR,0.00,VWS V14.01,2013-01-15 17:24:00,
2013-01-15 11:29:00,18.8,2.4,29.23,SSW,200,0.0,0.0,48,0.00,,CLR,0.00,VWS V14.01,2013-01-15 17:29:00,
2013-01-15 11:34:00,19.2,2.3,29.21,SW,224,0.0,0.0,47,0.00,,CLR,0.00,VWS V14.01,2013-01-15 17:34:00,
2013-01-15 11:39:00,19.4,2.5,29.21,SSE,153,0.0,0.0,47,0.00,,CLR,0.00,VWS V14.01,2013-01-15 17:39:00,
2013-01-15 11:44:00,19.9,2.5,29.21,SSE,149,0.0,0.0,46,0.00,,CLR,0.00,VWS V14.01,2013-01-15 17:44:00,
2013-01-15 11:49:00,20.3,2.8,29.23,SE,146,0.0,0.0,46,0.00,,CLR,0.00,VWS V14.01,2013-01-15 17:49:00,
2013-01-15 11:54:00,20.8,3.3,29.23,WSW,251,0.0,0.0,46,0.00,,CLR,0.00,VWS V14.01,2013-01-15 17:54:00,
2013-01-15 11:59:00,21.5,3.5,29.23,South,185,4.5,4.5,45,0.00,,CLR,0.00,VWS V14.01,2013-01-15 17:59:00,
2013-01-15 12:04:00,22.3,3.7,29.21,WSW,243,4.0,4.0,44,0.00,,CLR,0.00,VWS V14.01,2013-01-15 18:04:00,
2013-01-15 12:09:00,22.6,3.5,29.21,SW,235,3.6,4.5,43,0.00,,CLR,0.00,VWS V14.01,2013-01-15 18:09:00,
2013-01-15 12:14:00,23.3,3.7,29.21,SW,215,0.0,0.0,42,0.00,,CLR,0.00,VWS V14.01,2013-01-15 18:14:00,
2013-01-15 12:19:00,24.1,4.3,29.21,South,189,0.0,0.0,42,0.00,,CLR,0.00,VWS V14.01,2013-01-15 18:19:00,
2013-01-15 12:24:00,24.4,4.1,29.21,WNW,292,4.0,4.0,41,0.00,,CLR,0.00,VWS V14.01,2013-01-15 18:24:00,
2013-01-15 12:29:00,24.8,3.3,29.21,SSE,167,5.1,9.8,39,0.00,,CLR,0.00,VWS V14.01,2013-01-15 18:29:00,
2013-01-15 12:34:00,25.1,2.5,29.21,WNW,287,0.0,3.1,37,0.00,,CLR,0.00,VWS V14.01,2013-01-15 18:34:00,
2013-01-15 12:39:00,25.5,2.9,29.21,ESE,116,0.0,4.0,37,0.00,,CLR,0.00,VWS V14.01,2013-01-15 18:39:00,
2013-01-15 12:44:00,26.4,3.7,29.21,West,264,0.0,0.0,37,0.00,,CLR,0.00,VWS V14.01,2013-01-15 18:44:00,
2013-01-15 12:49:00,26.9,3.6,29.21,South,183,2.7,2.7,36,0.00,,CLR,0.00,VWS V14.01,2013-01-15 18:49:00,
2013-01-15 12:54:00,27.5,3.4,29.21,SW,221,0.0,4.0,35,0.00,,CLR,0.00,VWS V14.01,2013-01-15 18:54:00,
2013-01-15 12:59:00,28.0,3.9,29.21,SE,132,4.7,5.6,35,0.00,,CLR,0.00,VWS V14.01,2013-01-15 18:59:00,
2013-01-15 13:04:00,28.2,2.8,29.18,NNW,331,3.1,6.5,33,0.00,,CLR,0.00,VWS V14.01,2013-01-15 19:04:00,
2013-01-15 13:09:00,27.8,3.1,29.18,SSW,197,0.0,5.1,34,0.00,,CLR,0.00,VWS V14.01,2013-01-15 19:09:00,
2013-01-15 13:14:00,28.2,3.5,29.18,South,182,3.6,4.0,34,0.00,,CLR,0.00,VWS V14.01,2013-01-15 19:14:00,
2013-01-15 13:19:00,28.4,3.6,29.18,South,189,0.0,0.0,34,0.00,,CLR,0.00,VWS V14.01,2013-01-15 19:19:00,
2013-01-15 13:24:00,28.4,3.6,29.18,South,186,3.1,7.4,34,0.00,,CLR,0.00,VWS V14.01,2013-01-15 19:24:00,
2013-01-15 13:29:00,28.7,3.9,29.18,South,190,3.6,7.4,34,0.00,,CLR,0.00,VWS V14.01,2013-01-15 19:29:00,
2013-01-15 13:34:00,29.1,4.2,29.18,South,177,4.5,6.0,34,0.00,,CLR,0.00,VWS V14.01,2013-01-15 19:34:00,
2013-01-15 13:39:00,28.9,4.1,29.18,SSE,157,5.6,6.9,34,0.00,,CLR,0.00,VWS V14.01,2013-01-15 19:39:00,
2013-01-15 13:44:00,28.6,3.8,29.18,SW,224,5.1,5.6,34,0.00,,CLR,0.00,VWS V14.01,2013-01-15 19:44:00,
2013-01-15 13:49:00,28.6,3.8,29.18,South,188,3.1,4.0,34,0.00,,CLR,0.00,VWS V14.01,2013-01-15 19:49:00,
2013-01-15 13:54:00,28.6,3.8,29.18,NW,313,3.6,4.5,34,0.00,,CLR,0.00,VWS V14.01,2013-01-15 19:54:00,
2013-01-15 13:59:00,28.7,3.9,29.18,SW,220,4.5,4.7,34,0.00,,CLR,0.00,VWS V14.01,2013-01-15 19:59:00,
2013-01-15 14:04:00,28.7,3.9,29.18,South,191,3.1,7.8,34,0.00,,CLR,0.00,VWS V14.01,2013-01-15 20:04:00,
2013-01-15 14:09:00,28.9,4.1,29.18,SW,222,4.7,7.4,34,0.00,,CLR,0.00,VWS V14.01,2013-01-15 20:09:00,
2013-01-15 14:14:00,29.1,4.2,29.18,WNW,292,2.7,2.7,34,0.00,,CLR,0.00,VWS V14.01,2013-01-15 20:14:00,
2013-01-15 14:19:00,29.3,4.4,29.15,South,182,4.7,6.9,34,0.00,,CLR,0.00,VWS V14.01,2013-01-15 20:19:00,
2013-01-15 14:24:00,29.3,4.4,29.15,SSE,166,4.0,4.0,34,0.00,,CLR,0.00,VWS V14.01,2013-01-15 20:24:00,
2013-01-15 14:29:00,29.3,4.4,29.15,SSE,166,4.0,4.0,34,0.00,,CLR,0.00,VWS V14.01,2013-01-15 20:29:00,
2013-01-15 14:34:00,29.1,4.2,29.15,SSE,166,4.0,4.0,34,0.00,,CLR,0.00,VWS V14.01,2013-01-15 20:34:00,
2013-01-15 14:39:00,29.1,4.2,29.15,SSE,166,4.0,4.0,34,0.00,,CLR,0.00,VWS V14.01,2013-01-15 20:39:00,
2013-01-15 14:44:00,29.3,4.4,29.15,SSE,166,4.0,4.0,34,0.00,,CLR,0.00,VWS V14.01,2013-01-15 20:44:00,
2013-01-15 14:49:00,29.3,4.4,29.15,SSE,166,4.0,4.0,34,0.00,,CLR,0.00,VWS V14.01,2013-01-15 20:49:00,
2013-01-15 14:54:00,29.5,4.6,29.15,SSE,166,4.0,4.0,34,0.00,,CLR,0.00,VWS V14.01,2013-01-15 20:54:00,
2013-01-15 14:59:00,29.1,4.2,29.15,SSE,166,4.0,4.0,34,0.00,,CLR,0.00,VWS V14.01,2013-01-15 20:59:00,
2013-01-15 15:04:00,28.7,4.6,29.15,SSE,166,4.0,4.0,35,0.00,,CLR,0.00,VWS V14.01,2013-01-15 21:04:00,
2013-01-15 15:09:00,28.4,4.2,29.15,SSE,166,4.0,4.0,35,0.00,,CLR,0.00,VWS V14.01,2013-01-15 21:09:00,
2013-01-15 15:14:00,28.2,4.7,29.15,SSE,166,4.0,4.0,36,0.00,,CLR,0.00,VWS V14.01,2013-01-15 21:14:00,
2013-01-15 15:20:00,27.8,4.4,29.15,SSW,193,3.1,5.6,36,0.00,,CLR,0.00,VWS V14.01,2013-01-15 21:20:00,
2013-01-15 15:25:00,27.8,4.4,29.15,South,190,0.0,0.0,36,0.00,,CLR,0.00,VWS V14.01,2013-01-15 21:25:00,
2013-01-15 15:29:00,27.8,5.0,29.15,SW,219,3.1,3.1,37,0.00,,CLR,0.00,VWS V14.01,2013-01-15 21:29:00,
2013-01-15 15:35:00,27.8,5.0,29.15,ESE,112,4.5,4.5,37,0.00,,CLR,0.00,VWS V14.01,2013-01-15 21:35:00,
2013-01-15 15:40:00,27.8,5.0,29.15,South,182,3.6,4.5,37,0.00,,CLR,0.00,VWS V14.01,2013-01-15 21:40:00,
2013-01-15 15:45:00,27.7,5.4,29.15,West,264,4.0,4.0,38,0.00,,CLR,0.00,VWS V14.01,2013-01-15 21:45:00,
2013-01-15 15:50:00,27.5,5.2,29.15,West,259,7.8,7.8,38,0.00,,CLR,0.00,VWS V14.01,2013-01-15 21:50:00,
2013-01-15 15:55:00,27.3,5.1,29.15,North,357,5.1,5.1,38,0.00,,CLR,0.00,VWS V14.01,2013-01-15 21:55:00,
2013-01-15 16:00:00,26.9,5.3,29.15,West,275,0.0,0.0,39,0.00,,CLR,0.00,VWS V14.01,2013-01-15 22:00:00,
2013-01-15 16:05:00,26.6,5.0,29.12,SSE,164,4.7,4.7,39,0.00,,FEW043,0.00,VWS V14.01,2013-01-15 22:05:00,
2013-01-15 16:10:00,26.6,5.5,29.12,SSE,168,2.7,4.0,40,0.00,,FEW043,0.00,VWS V14.01,2013-01-15 22:10:00,
2013-01-15 16:15:00,26.4,5.9,29.12,SSW,204,2.7,3.6,41,0.00,,FEW043,0.00,VWS V14.01,2013-01-15 22:15:00,
2013-01-15 16:20:00,26.4,5.9,29.12,SW,231,3.1,3.1,41,0.00,,FEW043,0.00,VWS V14.01,2013-01-15 22:20:00,
2013-01-15 16:25:00,26.2,5.7,29.12,South,182,0.0,0.0,41,0.00,,FEW043,0.00,VWS V14.01,2013-01-15 22:25:00,
2013-01-15 16:30:00,25.9,5.4,29.12,South,181,3.1,3.1,41,0.00,,FEW043,0.00,VWS V14.01,2013-01-15 22:30:00,
2013-01-15 16:35:00,25.7,5.2,29.12,South,182,2.7,4.5,41,0.00,,FEW043,0.00,VWS V14.01,2013-01-15 22:35:00,
2013-01-15 16:40:00,25.5,5.1,29.12,SSE,158,0.0,0.0,41,0.00,,FEW043,0.00,VWS V14.01,2013-01-15 22:40:00,
2013-01-15 16:45:00,25.3,4.9,29.12,SSE,164,2.7,2.7,41,0.00,,FEW043,0.00,VWS V14.01,2013-01-15 22:45:00,
2013-01-15 16:50:00,25.1,4.8,29.12,South,173,0.0,0.0,41,0.00,,FEW043,0.00,VWS V14.01,2013-01-15 22:50:00,
2013-01-15 16:55:00,25.0,4.6,29.12,SSW,193,0.0,0.0,41,0.00,,FEW043,0.00,VWS V14.01,2013-01-15 22:55:00,
2013-01-15 17:00:00,24.8,4.4,29.12,SW,231,4.5,5.6,41,0.00,,FEW043,0.00,VWS V14.01,2013-01-15 23:00:00,
2013-01-15 17:05:00,24.6,4.8,29.12,SW,220,4.7,4.7,42,0.00,,OVC041,0.00,VWS V14.01,2013-01-15 23:05:00,
2013-01-15 17:10:00,24.4,4.6,29.12,East,83,0.0,2.7,42,0.00,,OVC041,0.00,VWS V14.01,2013-01-15 23:10:00,
2013-01-15 17:15:00,24.2,4.5,29.12,SSE,156,0.0,0.0,42,0.00,,OVC041,0.00,VWS V14.01,2013-01-15 23:15:00,
2013-01-15 17:20:00,24.1,4.3,29.12,SSE,156,0.0,0.0,42,0.00,,OVC041,0.00,VWS V14.01,2013-01-15 23:20:00,
2013-01-15 17:25:00,23.7,4.0,29.12,SSE,156,0.0,0.0,42,0.00,,OVC041,0.00,VWS V14.01,2013-01-15 23:25:00,
2013-01-15 17:30:00,23.5,3.8,29.12,SSE,156,0.0,0.0,42,0.00,,OVC041,0.00,VWS V14.01,2013-01-15 23:30:00,
2013-01-15 17:35:00,23.3,4.2,29.12,SSE,156,0.0,0.0,43,0.00,,OVC041,0.00,VWS V14.01,2013-01-15 23:35:00,
2013-01-15 17:40:00,23.2,4.0,29.12,SSE,156,0.0,0.0,43,0.00,,OVC041,0.00,VWS V14.01,2013-01-15 23:40:00,
2013-01-15 17:45:00,23.0,3.8,29.12,SSE,156,0.0,0.0,43,0.00,,OVC041,0.00,VWS V14.01,2013-01-15 23:45:00,
2013-01-15 17:50:00,23.0,3.8,29.12,SSE,156,0.0,0.0,43,0.00,,OVC041,0.00,VWS V14.01,2013-01-15 23:50:00,
2013-01-15 17:55:00,23.0,3.8,29.12,SSE,156,0.0,0.0,43,0.00,,OVC041,0.00,VWS V14.01,2013-01-15 23:55:00,
2013-01-15 18:00:00,23.2,4.0,29.12,SSE,156,0.0,0.0,43,0.00,,OVC041,0.00,VWS V14.01,2013-01-16 00:00:00,
2013-01-15 18:05:00,23.3,4.7,29.12,WSW,238,0.0,3.1,44,0.00,,OVC043,0.00,VWS V14.01,2013-01-16 00:05:00,
2013-01-15 18:10:00,23.3,4.7,29.12,WSW,237,0.0,0.0,44,0.00,,OVC043,0.00,VWS V14.01,2013-01-16 00:10:00,
2013-01-15 18:15:00,23.5,4.8,29.12,West,280,0.0,0.0,44,0.00,,OVC043,0.00,VWS V14.01,2013-01-16 00:15:00,
2013-01-15 18:20:00,23.7,5.0,29.12,South,180,0.0,0.0,44,0.00,,OVC043,0.00,VWS V14.01,2013-01-16 00:20:00,
2013-01-15 18:26:00,23.9,4.7,29.12,WNW,291,5.1,5.1,43,0.00,,OVC043,0.00,VWS V14.01,2013-01-16 00:26:00,
2013-01-15 18:31:00,24.1,4.8,29.12,WNW,291,5.1,5.1,43,0.00,,OVC043,0.00,VWS V14.01,2013-01-16 00:31:00,
2013-01-15 18:36:00,24.1,4.8,29.09,WNW,291,5.1,5.1,43,0.00,,OVC043,0.00,VWS V14.01,2013-01-16 00:36:00,
2013-01-15 18:41:00,24.2,5.0,29.09,WNW,291,5.1,5.1,43,0.00,,OVC043,0.00,VWS V14.01,2013-01-16 00:41:00,
2013-01-15 18:46:00,24.2,5.0,29.09,WNW,291,5.1,5.1,43,0.00,,OVC043,0.00,VWS V14.01,2013-01-16 00:46:00,
2013-01-15 18:51:00,24.4,5.2,29.09,WNW,291,5.1,5.1,43,0.00,,OVC043,0.00,VWS V14.01,2013-01-16 00:51:00,
2013-01-15 18:56:00,24.4,5.2,29.09,South,190,4.5,4.5,43,0.00,,OVC043,0.00,VWS V14.01,2013-01-16 00:56:00,
2013-01-15 19:01:00,24.6,5.3,29.09,South,190,4.5,4.5,43,0.00,,OVC045,0.00,VWS V14.01,2013-01-16 01:01:00,
2013-01-15 19:06:00,24.6,5.3,29.09,South,190,4.5,4.5,43,0.00,,OVC045,0.00,VWS V14.01,2013-01-16 01:06:00,
2013-01-15 19:11:00,24.6,5.3,29.09,South,190,4.5,4.5,43,0.00,,OVC045,0.00,VWS V14.01,2013-01-16 01:11:00,
2013-01-15 19:16:00,24.4,5.2,29.09,South,172,0.0,0.0,43,0.00,,OVC045,0.00,VWS V14.01,2013-01-16 01:16:00,
2013-01-15 19:21:00,24.4,5.2,29.09,SE,128,3.6,3.6,43,0.00,,OVC045,0.00,VWS V14.01,2013-01-16 01:21:00,
2013-01-15 19:26:00,24.4,5.2,29.09,SE,128,3.6,3.6,43,0.00,,OVC045,0.00,VWS V14.01,2013-01-16 01:26:00,
2013-01-15 19:31:00,24.1,4.8,29.09,SE,128,3.6,3.6,43,0.00,,OVC045,0.00,VWS V14.01,2013-01-16 01:31:00,
2013-01-15 19:36:00,24.1,4.8,29.09,SSW,203,7.4,7.4,43,0.00,,OVC045,0.00,VWS V14.01,2013-01-16 01:36:00,
2013-01-15 19:41:00,23.7,4.5,29.09,WNW,296,3.1,4.0,43,0.00,,OVC045,0.00,VWS V14.01,2013-01-16 01:41:00,
2013-01-15 19:46:00,23.7,4.5,29.09,SSE,151,3.6,3.6,43,0.00,,OVC045,0.00,VWS V14.01,2013-01-16 01:46:00,
2013-01-15 19:51:00,23.5,4.3,29.06,South,180,2.7,5.1,43,0.00,,OVC045,0.00,VWS V14.01,2013-01-16 01:51:00,
2013-01-15 19:56:00,23.3,4.2,29.06,SSW,194,4.7,4.7,43,0.00,,OVC045,0.00,VWS V14.01,2013-01-16 01:56:00,
2013-01-15 20:01:00,23.3,4.2,29.06,South,183,0.0,0.0,43,0.00,,OVC047,0.00,VWS V14.01,2013-01-16 02:01:00,
2013-01-15 20:06:00,23.3,4.2,29.06,SE,128,0.0,0.0,43,0.00,,OVC047,0.00,VWS V14.01,2013-01-16 02:06:00,
2013-01-15 20:11:00,23.0,3.8,29.06,WSW,257,3.6,3.6,43,0.00,,OVC047,0.00,VWS V14.01,2013-01-16 02:11:00,
2013-01-15 20:16:00,22.8,3.7,29.06,SSE,155,0.0,0.0,43,0.00,,OVC047,0.00,VWS V14.01,2013-01-16 02:16:00,
2013-01-15 20:21:00,22.6,3.5,29.06,SSW,206,0.0,0.0,43,0.00,,OVC047,0.00,VWS V14.01,2013-01-16 02:21:00,
2013-01-15 20:26:00,22.6,3.5,29.06,South,177,5.6,5.6,43,0.00,,OVC047,0.00,VWS V14.01,2013-01-16 02:26:00,
2013-01-15 20:31:00,22.4,3.3,29.06,SE,143,2.7,3.1,43,0.00,,OVC047,0.00,VWS V14.01,2013-01-16 02:31:00,
2013-01-15 20:36:00,22.4,3.3,29.06,SSE,162,3.1,3.1,43,0.00,,OVC047,0.00,VWS V14.01,2013-01-16 02:36:00,
2013-01-15 20:41:00,22.3,3.2,29.06,SSE,150,3.1,3.1,43,0.00,,OVC047,0.00,VWS V14.01,2013-01-16 02:41:00,
2013-01-15 20:46:00,22.1,3.0,29.06,ESE,106,3.6,3.6,43,0.00,,OVC047,0.00,VWS V14.01,2013-01-16 02:46:00,
2013-01-15 20:51:00,22.1,3.0,29.03,South,171,0.0,0.0,43,0.00,,OVC047,0.00,VWS V14.01,2013-01-16 02:51:00,
2013-01-15 20:56:00,22.3,3.2,29.03,WNW,301,4.5,4.5,43,0.00,,OVC047,0.00,VWS V14.01,2013-01-16 02:56:00,
2013-01-15 21:01:00,22.3,3.2,29.03,South,182,0.0,0.0,43,0.00,,CLR,0.00,VWS V14.01,2013-01-16 03:01:00,
2013-01-15 21:06:00,22.3,3.2,29.03,South,189,3.6,3.6,43,0.00,,CLR,0.00,VWS V14.01,2013-01-16 03:06:00,
2013-01-15 21:11:00,22.1,3.0,29.03,South,187,0.0,0.0,43,0.00,,CLR,0.00,VWS V14.01,2013-01-16 03:11:00,
2013-01-15 21:16:00,22.3,3.2,29.03,SSE,156,0.0,0.0,43,0.00,,CLR,0.00,VWS V14.01,2013-01-16 03:16:00,
2013-01-15 21:21:00,22.3,3.2,29.03,South,169,5.1,5.1,43,0.00,,CLR,0.00,VWS V14.01,2013-01-16 03:21:00,
2013-01-15 21:27:00,22.3,3.2,29.03,WSW,247,0.0,0.0,43,0.00,,CLR,0.00,VWS V14.01,2013-01-16 03:27:00,
2013-01-15 21:32:00,22.3,3.2,29.03,SSE,167,0.0,4.5,43,0.00,,CLR,0.00,VWS V14.01,2013-01-16 03:32:00,
2013-01-15 21:36:00,22.1,3.0,29.00,South,171,0.0,6.0,43,0.00,,CLR,0.00,VWS V14.01,2013-01-16 03:36:00,
2013-01-15 21:42:00,22.1,3.0,29.00,SSE,156,0.0,4.0,43,0.00,,CLR,0.00,VWS V14.01,2013-01-16 03:42:00,
2013-01-15 21:47:00,22.1,3.0,29.00,SSE,159,0.0,0.0,43,0.00,,CLR,0.00,VWS V14.01,2013-01-16 03:47:00,
2013-01-15 21:52:00,22.1,3.0,29.00,SW,226,0.0,4.7,43,0.00,,CLR,0.00,VWS V14.01,2013-01-16 03:52:00,
2013-01-15 21:57:00,21.9,2.8,29.00,SSE,159,6.5,6.5,43,0.00,,CLR,0.00,VWS V14.01,2013-01-16 03:57:00,
2013-01-15 22:02:00,21.9,2.8,29.00,SSW,213,0.0,0.0,43,0.00,,FEW049,0.00,VWS V14.01,2013-01-16 04:02:00,
2013-01-15 22:07:00,21.9,2.8,29.00,West,262,0.0,0.0,43,0.00,,FEW049,0.00,VWS V14.01,2013-01-16 04:07:00,
2013-01-15 22:12:00,21.9,2.8,29.00,SSE,151,0.0,2.7,43,0.00,,FEW049,0.00,VWS V14.01,2013-01-16 04:12:00,
2013-01-15 22:17:00,21.9,2.8,29.00,SSE,166,0.0,0.0,43,0.00,,FEW049,0.00,VWS V14.01,2013-01-16 04:17:00,
2013-01-15 22:22:00,21.7,2.7,29.00,SSW,207,0.0,0.0,43,0.00,,FEW049,0.00,VWS V14.01,2013-01-16 04:22:00,
2013-01-15 22:27:00,21.7,2.7,29.00,South,191,3.1,3.1,43,0.00,,FEW049,0.00,VWS V14.01,2013-01-16 04:27:00,
2013-01-15 22:32:00,21.7,2.7,29.00,SE,141,0.0,0.0,43,0.00,,FEW049,0.00,VWS V14.01,2013-01-16 04:32:00,
2013-01-15 22:37:00,21.7,2.7,28.97,SSW,199,0.0,0.0,43,0.00,,FEW049,0.00,VWS V14.01,2013-01-16 04:37:00,
2013-01-15 22:42:00,21.5,2.5,28.97,SSW,192,3.6,3.6,43,0.00,,FEW049,0.00,VWS V14.01,2013-01-16 04:42:00,
2013-01-15 22:47:00,21.5,2.5,28.97,WSW,243,2.7,2.7,43,0.00,,FEW049,0.00,VWS V14.01,2013-01-16 04:47:00,
2013-01-15 22:52:00,21.5,2.5,28.97,ESE,106,0.0,0.0,43,0.00,,FEW049,0.00,VWS V14.01,2013-01-16 04:52:00,
2013-01-15 22:57:00,21.5,2.5,28.97,SSE,158,0.0,0.0,43,0.00,,FEW049,0.00,VWS V14.01,2013-01-16 04:57:00,
2013-01-15 23:00:00,21.4,2.3,28.97,SE,142,0.0,4.5,43,0.00,,FEW049,0.00,VWS V14.01,2013-01-16 05:00:00,
2013-01-15 23:01:00,21.4,2.3,28.97,SE,142,0.0,0.0,43,0.00,,CLR,0.00,VWS V14.01,2013-01-16 05:01:00,
2013-01-15 23:02:00,21.4,2.3,28.97,SE,142,0.0,0.0,43,0.00,,CLR,0.00,VWS V14.01,2013-01-16 05:02:00,
2013-01-15 23:03:00,21.4,2.3,28.94,SSW,194,6.0,6.0,43,0.00,,CLR,0.00,VWS V14.01,2013-01-16 05:03:00,
2013-01-15 23:08:00,21.4,2.3,28.94,South,177,4.5,4.5,43,0.00,,CLR,0.00,VWS V14.01,2013-01-16 05:08:00,
2013-01-15 23:13:00,21.4,2.3,28.94,South,186,0.0,0.0,43,0.00,,CLR,0.00,VWS V14.01,2013-01-16 05:13:00,
2013-01-15 23:18:00,21.2,2.2,28.94,SE,143,0.0,0.0,43,0.00,,CLR,0.00,VWS V14.01,2013-01-16 05:18:00,
2013-01-15 23:23:00,21.0,2.5,28.94,SE,143,0.0,0.0,44,0.00,,CLR,0.00,VWS V14.01,2013-01-16 05:23:00,
2013-01-15 23:28:00,20.8,2.4,28.94,South,187,0.0,0.0,44,0.00,,CLR,0.00,VWS V14.01,2013-01-16 05:28:00,
2013-01-15 23:33:00,20.8,2.4,28.94,South,187,0.0,0.0,44,0.00,,CLR,0.00,VWS V14.01,2013-01-16 05:33:00,
2013-01-15 23:38:00,20.8,2.4,28.94,SSE,153,0.0,0.0,44,0.00,,CLR,0.00,VWS V14.01,2013-01-16 05:38:00,
2013-01-15 23:43:00,20.6,2.2,28.94,SW,219,4.0,4.7,44,0.00,,CLR,0.00,VWS V14.01,2013-01-16 05:43:00,
2013-01-15 23:48:00,20.8,2.4,28.94,SW,235,0.0,0.0,44,0.00,,CLR,0.00,VWS V14.01,2013-01-16 05:48:00,
2013-01-15 23:53:00,20.8,2.4,28.94,SW,231,0.0,4.5,44,0.00,,CLR,0.00,VWS V14.01,2013-01-16 05:53:00,
2013-01-15 23:58:00,21.0,2.5,28.94,SE,128,0.0,0.0,44,0.00,,CLR,0.00,VWS V14.01,2013-01-16 05:58:00,